Location: Camp Roosevelt
(41.7914°N, 81.1673°W)
Time: 09:26:32
(UTC+00:00)

Meteor 2-10 Rocket - Pass Details

Date: 29 October 2020
Orbit: 733 x 885 km, 81.2° (Epoch: 27 November)

Event Time Altitude Azimuth Distance (km) Brightness Sun altitude
Rises 22:50:26 0° 158° (SSE) 3,304 6.7 -5.9°
Reaches altitude 10° 22:53:09 10° 146° (SSE) 2,352 5.8 -6.4°
Maximum altitude 22:57:32 27° 90° (E) 1,453 4.4 -7.2°
Drops below altitude 10° 23:01:48 10° 34° (NE) 2,292 5.6 -8.0°
Sets 23:04:24 0° 22° (NNE) 3,204 6.4 -8.5°
